This demonstration page uses our WeatherBlox Daily Observations layout. Learn more.

Left ArrowRight Arrow

Hourly Observations for June 28, 2021

Temp ( °F °C ) Dew Point ( °F °C ) Humidity (%) Winds ( mph kmh ) Pressure ( in mb ) Visibility ( mi km ) Precip ( " mm )
12:53 am 00:53 Clear 73 22.8 70 21.1 90 90 N N/A 30.11 1020 10 16 N/A
1:53 am 01:53 Clear 72 22.2 70 21.1 94 94 N N/A 30.12 1020 10 16 N/A
2:53 am 02:53 Clear 71 21.7 69 20.6 94 94 N N/A 30.13 1020 10 16 N/A
3:53 am 03:53 Clear 69 20.6 68 20 96 96 N N/A 30.13 1020 10 16 N/A
4:53 am 04:53 Clear 70 21.1 69 20.6 97 97 N N/A 30.14 1021 10 16 N/A
5:53 am 05:53 Clear with Mist and Fog 70 21.1 68 20 93 93 N N/A 30.15 1021 5 8 0.00 0.00
6:53 am 06:53 Sunny 71 21.7 69 20.6 94 94 N N/A 30.16 1021 10 16 N/A
7:53 am 07:53 Sunny 76 24.4 70 21.1 82 82 E 3 6 30.16 1022 10 16 N/A
8:53 am 08:53 Sunny 81 27.2 71 21.7 72 72 N N/A 30.19 1022 10 16 N/A
9:53 am 09:53 Sunny 85 29.4 72 22.2 65 65 N N/A 30.19 1022 10 16 N/A
10:53 am 10:53 Sunny 87 30.6 73 22.8 63 63 VRB 5 7 30.19 1023 10 16 N/A
11:53 am 11:53 Sunny 89 31.7 73 22.8 59 59 VRB 5 7 30.20 1023 10 16 N/A
12:53 pm 12:53 Sunny 89 31.7 71 21.7 55 55 N N/A 30.19 1022 10 16 N/A
1:53 pm 13:53 Sunny 87 30.6 72 22.2 61 61 VRB 3 6 30.19 1022 10 16 N/A
2:53 pm 14:53 Mostly Sunny 83 28.3 71 21.7 67 67 VRB 5 7 30.19 1022 10 16 N/A
3:53 pm 15:53 Sunny 87 30.6 73 22.8 63 63 VRB 3 6 30.16 1022 10 16 0.00 0.00
4:53 pm 16:53 Sunny 91 32.8 72 22.2 54 54 VRB 3 6 30.14 1021 10 16 N/A
5:53 pm 17:53 Sunny 91 32.8 73 22.8 56 56 VRB 3 6 30.14 1021 10 16 N/A
6:53 pm 18:53 Partly Cloudy 90 32.2 73 22.8 58 58 N N/A 30.13 1020 10 16 N/A
7:53 pm 19:53 Mostly Cloudy 86 30 73 22.8 65 65 N N/A 30.14 1021 10 16 N/A
8:53 pm 20:53 Mostly Cloudy 81 27.2 74 23.3 79 79 N N/A 30.14 1021 10 16 N/A
9:53 pm 21:53 Clear 78 25.6 73 22.8 85 85 N N/A 30.16 1021 10 16 N/A
10:53 pm 22:53 Mostly Clear 76 24.4 73 22.8 91 91 N N/A 30.18 1022 10 16 N/A
11:53 pm 23:53 Clear 74 23.3 72 22.2 94 94 N N/A 30.19 1022 10 16 N/A

Powered by AerisWeather